Location: Cactus School
(34.5700°N, 118.0931°W)
Time: 09:42:28
(UTC-07:00)

S-56A Canister/Altair - Pass Details

Date: 17 April 2024
Orbit: 638 x 2488 km, 38.9° (Epoch: 29 May)

Event Time Altitude Azimuth Distance (km) Brightness Sun altitude
Rises 00:01:34 0° 290° (WNW) 4,619 11.9 -43.2°
Reaches altitude 10° 00:04:17 10° 288° (WNW) 3,857 11.3 -43.4°
Enters shadow 00:10:30 44° 269° (W) 2,497 10.0 -43.7°
Maximum altitude 00:14:46 64° 210° (SSW) 2,266 - -43.9°
Drops below altitude 10° 00:29:01 10° 133° (SE) 5,096 - -44.4°
Sets 00:33:12 0° 131° (SE) 6,151 - -44.5°
